"Pseudo-MPEC" for 6H62G21

Created 2026 Aug 7 18:35:01 UT using Find_Orb

Click here for an explanation of pseudo-MPECs

 
 Astrometry: 
     6H62G21 0C2026 04 19.33301811 55 45.745-21 13 03.84   ~87IK 22.73GVNEOCPF52
     6H62G21 0C2026 04 19.34463111 55 44.110-21 13 12.38   ~87IK 22.37GVNEOCPF52
     6H62G21 0C2026 04 19.35627111 55 42.427-21 13 20.92   ~87IK 22.69GVNEOCPF52
     6H62G21 0C2026 05 07.26845711 16 53.150-25 15 08.11   ~87IK 23.05GVNEOCPF52
     6H62G21 0C2026 05 07.27982811 16 51.533-25 15 18.68   ~87IK 22.65GVNEOCPF52
     6H62G21 0C2026 05 07.29085111 16 50.005-25 15 28.78   ~87IK 22.25GVNEOCPF52
     6H62G21 0C2026 07 20.08030800 22 50.074-37 03 48.10   ~87I5 19.45oVNEOCPM22
     6H62G21 0C2026 07 20.08211100 22 49.404-37 03 35.24   ~87I5 19.21oVNEOCPM22
     6H62G21 0C2026 07 20.10064500 22 42.322-37 01 17.51   ~87I5 19.48oVNEOCPM22
     6H62G21 0C2026 07 20.11069700 22 38.525-37 00 02.38   ~87I5 19.37oVNEOCPM22
     6H62G21 0C2026 07 26.58105023 54 14.431-25 36 01.23   ~87IK 19.42GVNEOCPF52
     6H62G21 0C2026 07 26.58364423 54 13.798-25 35 47.51   ~87IK 19.87GVNEOCPF52
     6H62G21*KC2026 08 07.27999 23 22 28.75 -13 07 01.2    ~878K 20.1 GVNEOCPW94
     6H62G21 KC2026 08 07.28621 23 22 27.75 -13 06 43.5    ~878K 20.0 GVNEOCPW94
     6H62G21 KC2026 08 07.29240 23 22 26.75 -13 06 27.2    ~878K 20.4 GVNEOCPW94
     6H62G21 4C2026 08 07.34499 23 22 18.64 -13 04 06.7    ~8795 20.4 VqNEOCPW97
     6H62G21 4C2026 08 07.35083 23 22 17.75 -13 03 51.2    ~8795 20.6 VqNEOCPW97
     6H62G21 4C2026 08 07.35668 23 22 16.88 -13 03 35.7    ~8795 20.3 VqNEOCPW97

Station data:
(F52) Pan-STARRS 2, Haleakala  (N20.707382 W156.255910)  US/Hawaii.
   Observers J. Herman, T. Lowe, P. Minguez, A. Schultz, I. Smith. Measurers
   K. Chambers, T. de Boer, J. Fairlamb, H. Gao, M. Huber, C.-C. Lin, E.
   Magnier, Y. Ramanjooloo, R. Wainscoat, R. Weryk. 1.8-m Ritchey-Chrétien +
   CCD.
(M22) ATLAS South Africa, Sutherland  (S32.380156 E20.810590)  South Africa.
   Observers L. Denneau, R. Siverd, J. Tonry, H. Weiland. Measurers L.
   Denneau, N. Erasmus, A. Fitzsimmons, J. Robinson, R. Siverd, J. Tonry, H.
   Weiland. 0.5-m f/2.0 Schmidt + CCD.
(W94) AMACS1, San Pedro de Atacama  (S22.953074 W68.179810)  Chile.  Observers
   A. Maury, G. Attard. Measurers A. Maury, G. Attard, D. Parrott. 0.28-m
   f/2.2 Schmidt + CCD.
(W97) Atacama Desert Observatory, San Pedro de Atacama  (S22.953413
   W68.179760)  Chile.

Orbital elements:  6H62G21
   Perihelion 2026 Jun 24.741613 +/- 9.28e-5 TT = 17:47:55.3 (JD 2461216.241613)
Epoch 2026 Aug  7.0 TT = JDT 2461259.5   Earth MOID: 0.0657   Ma: 0.0819
M  14.574471942 +/- 0.0011          (J2000 ecliptic)             AutoNEOCP
n   0.336916674 +/- 2.65e-5         Peri.  301.573872 +/- 0.00020
a   2.045444555 +/- 0.000107        Node   329.409385 +/- 0.00018
e   0.50180175 +/- 2.6e-5           Incl.    5.584973 +/- 0.00022
P   2.92538                H 23.31  G  0.15   U  5.7
q 1.019036892 +/- 2.44e-7    Q 3.071852218 +/- 0.000214
From 18 observations 2026 Apr. 19-Aug. 7; mean residual 0".38
Residuals in arcseconds: 
260419 F52  .10-  .24-    260720 M22  .42-  .06-    260807 W94  1.1+  .46-    
260419 F52  .23+  .07-    260720 M22  .23-  .50-    260807 W94  .59+  .67+    
260419 F52  .05-  .06+    260720 M22  .61-  .14+    260807 W94  .03+  .46+    
260507 F52  .16+  .01+    260720 M22  .25-  .69+    260807 W97  .38+  .23+    
260507 F52  .25-  .04+    260726 F52  .14-  .09-    260807 W97  .46+  .05+    
260507 F52  .12-  .14+    260726 F52  .06-  .09-    260807 W97  .83+  .17-    

Ephemerides (geocentric):
Date (UTC) HH   RA             Dec           delta  r     elong  mag " sig PA
---- --------  ------------   ------------  ------ ------ -----  --- --------
2026 08 07 19  23 21 21.536   -12 44 47.02  .15043 1.1443 147.9 20.7 .074 155
2026 08 07 20  23 21 16.124   -12 42 59.36  .15060 1.1446 148.0 20.7 .074 155
2026 08 07 21  23 21 10.717   -12 41 11.97  .15077 1.1448 148.0 20.7 .074 155
2026 08 07 22  23 21 05.317   -12 39 24.84  .15095 1.1450 148.1 20.7 .074 155
2026 08 07 23  23 20 59.922   -12 37 37.98  .15112 1.1452 148.2 20.7 .074 155
2026 08 08 00  23 20 54.534   -12 35 51.37  .15130 1.1454 148.2 20.7 .075 154
2026 08 08 01  23 20 49.152   -12 34 05.03  .15147 1.1456 148.3 20.7 .075 154
2026 08 08 02  23 20 43.776   -12 32 18.95  .15165 1.1458 148.3 20.7 .075 154
2026 08 08 03  23 20 38.405   -12 30 33.13  .15182 1.1461 148.4 20.7 .075 154
2026 08 08 04  23 20 33.041   -12 28 47.57  .15200 1.1463 148.4 20.7 .075 154
2026 08 08 05  23 20 27.683   -12 27 02.26  .15217 1.1465 148.5 20.7 .076 154
2026 08 08 06  23 20 22.331   -12 25 17.22  .15235 1.1467 148.5 20.7 .076 154
2026 08 08 07  23 20 16.985   -12 23 32.43  .15253 1.1469 148.6 20.7 .076 154
2026 08 08 08  23 20 11.644   -12 21 47.91  .15270 1.1471 148.6 20.7 .076 154
2026 08 08 09  23 20 06.310   -12 20 03.64  .15288 1.1474 148.7 20.7 .077 154
2026 08 08 10  23 20 00.982   -12 18 19.62  .15305 1.1476 148.8 20.7 .077 153
2026 08 08 11  23 19 55.659   -12 16 35.86  .15323 1.1478 148.8 20.8 .077 153
2026 08 08 12  23 19 50.343   -12 14 52.35  .15341 1.1480 148.9 20.8 .077 153
2026 08 08 13  23 19 45.032   -12 13 09.10  .15358 1.1482 148.9 20.8 .077 153
2026 08 08 14  23 19 39.727   -12 11 26.11  .15376 1.1485 149.0 20.8 .078 153
2026 08 08 15  23 19 34.428   -12 09 43.36  .15394 1.1487 149.0 20.8 .078 153
2026 08 08 16  23 19 29.135   -12 08 00.87  .15411 1.1489 149.1 20.8 .078 153
2026 08 08 17  23 19 23.848   -12 06 18.63  .15429 1.1491 149.1 20.8 .078 153
2026 08 08 18  23 19 18.567   -12 04 36.64  .15447 1.1493 149.2 20.8 .078 153
2026 08 08 19  23 19 13.291   -12 02 54.90  .15465 1.1495 149.2 20.8 .079 153
2026 08 08 20  23 19 08.021   -12 01 13.41  .15482 1.1498 149.3 20.8 .079 152
2026 08 08 21  23 19 02.757   -11 59 32.17  .15500 1.1500 149.4 20.8 .079 152
2026 08 08 22  23 18 57.499   -11 57 51.18  .15518 1.1502 149.4 20.8 .079 152
2026 08 08 23  23 18 52.247   -11 56 10.44  .15536 1.1504 149.5 20.8 .079 152
2026 08 09 00  23 18 47.000   -11 54 29.94  .15553 1.1506 149.5 20.8 .080 152
2026 08 09 01  23 18 41.759   -11 52 49.69  .15571 1.1509 149.6 20.8 .080 152
2026 08 09 02  23 18 36.524   -11 51 09.69  .15589 1.1511 149.6 20.8 .080 152
2026 08 09 03  23 18 31.294   -11 49 29.93  .15607 1.1513 149.7 20.8 .080 152
2026 08 09 04  23 18 26.071   -11 47 50.42  .15625 1.1515 149.7 20.8 .081 152
2026 08 09 05  23 18 20.853   -11 46 11.15  .15643 1.1517 149.8 20.8 .081 152
2026 08 09 06  23 18 15.640   -11 44 32.13  .15661 1.1520 149.8 20.8 .081 151
2026 08 09 07  23 18 10.433   -11 42 53.35  .15679 1.1522 149.9 20.8 .081 151
2026 08 09 08  23 18 05.232   -11 41 14.81  .15696 1.1524 149.9 20.8 .081 151
2026 08 09 09  23 18 00.037   -11 39 36.52  .15714 1.1526 150.0 20.8 .082 151
2026 08 09 10  23 17 54.847   -11 37 58.46  .15732 1.1528 150.1 20.8 .082 151
2026 08 09 11  23 17 49.663   -11 36 20.65  .15750 1.1531 150.1 20.8 .082 151
2026 08 09 12  23 17 44.485   -11 34 43.07  .15768 1.1533 150.2 20.8 .082 151
2026 08 09 13  23 17 39.312   -11 33 05.74  .15786 1.1535 150.2 20.8 .082 151
2026 08 09 14  23 17 34.145   -11 31 28.65  .15804 1.1537 150.3 20.8 .083 151
2026 08 09 15  23 17 28.983   -11 29 51.79  .15822 1.1539 150.3 20.8 .083 151
2026 08 09 16  23 17 23.827   -11 28 15.17  .15840 1.1542 150.4 20.8 .083 150
2026 08 09 17  23 17 18.676   -11 26 38.79  .15858 1.1544 150.4 20.8 .083 150
2026 08 09 18  23 17 13.531   -11 25 02.65  .15877 1.1546 150.5 20.8 .083 150